Regional Weather Roundup
Issued by NWS Spokane, WA

Home | Current Version | Previous Version | Text Only | Print | Product List | Glossary On
Versions: 1 2 3 4 5 6 7 8 9 10 11 12 13 14 15 16 17 18 19 20 21 22 23 24 25 26 27 28 29 30 31 32 33 34 35 36 37 38 39 40 41 42 43 44 45 46 47 48 49 50
280
NZUS01 KOTX 170825
RWROTX

Eastern Washington/Northern Idaho Roundup
National Weather Service, Spokane WA
1200 AM PST WED JAN 17 2018

Note: "fair" indicated few or no clouds below 12,000 feet with no
significant weather and/or obstructions to visibility.

...Northeast Washington and Northern Idaho Panhandle...

CITY           SKY/WX    TMP DP  RH WIND       PRES   REMARKS
Spokane Intl   FOG       32  32 100 NE5       30.30F VSB 1/4 WCI  27
Spokane Downto FOG       33  33 100 CALM      30.31F VSB 1/4
Coeur d Alene  FOG       28  28 100 E7        30.31F VSB 3/4 WCI  21
Deer Park      CLOUDY    34  34 100 CALM      30.31F
Sandpoint      FOG       32  32 100 CALM      30.32F VSB 1/2
Bonners Ferry  PTSUNNY   32  32 100 E5        30.31F WCI  27

...Southeast Washington and southern Idaho Panhandle...

CITY           SKY/WX    TMP DP  RH WIND       PRES   REMARKS
Pullman/Moscow CLEAR     35  32  88 E12       30.29F WCI  27
Lewiston       CLEAR     35  34  96 E3        30.31F
Grangeville    FAIR      28  28 100 CALM      30.29F

...Columbia Basin...

CITY           SKY/WX    TMP DP  RH WIND       PRES   REMARKS
Ephrata        CLOUDY    38  32  79 NW10      30.29F
Moses Lake     FOG       36  36 100 NE7       30.30S VSB 3/4
Pasco          FOG       33  32  96 NW5       30.31S VSB 1/4 WCI  29
Richland       MOSUNNY   32  32 100 NW6       30.30F WCI  27
Hermiston      MOCLDY    36  34  92 NE5       30.25F
Pendleton      MOCLDY    35  32  88 E6        30.24F

...East Slopes Cascades...

CITY           SKY/WX    TMP DP  RH WIND       PRES   REMARKS
The Dalles     CLOUDY    40  39  97 E3        30.27F FOG
Yakima         CLOUDY    35  33  92 W5        30.28F
Wenatchee      CLOUDY    34  34 100 NW3       30.31F FOG
Omak           FOG       34  34 100 SW5       30.32F VSB 1/4 WCI  30
Sunnyside      PTSUNNY   32  31  96 CALM      30.28F

...Southern British Columbia...

CITY           SKY/WX    TMP DP  RH WIND       PRES   REMARKS
Penticton      MOCLDY    37  34  87 S13       30.28F
Cranbrook      PTCLDY    18  16  93 CALM      30.24F
Osoyoos          N/A     36  34  93 S2          N/A
Creston          N/A     30  30 100 E6          N/A  WCI  24

...Western Montana...

CITY           SKY/WX    TMP DP  RH WIND       PRES   REMARKS
Kalispell      PTSUNNY   29  28  96 W7        30.32S WCI  22
Missoula       PTCLDY    30  25  81 SE6       30.34F WCI  24

...Neighboring Cities...

CITY           SKY/WX    TMP DP  RH WIND       PRES   REMARKS
Seattle        CLOUDY    44  38  79 W3        30.13F
Portland       CLOUDY    46  41  82 E3        30.13F
Boise          FOG       34  34 100 S3        30.36S VSB 1/4
Great Falls    CLEAR     34  23  64 SW15      30.19R WCI  24
Calgary        PTCLDY    36  16  44 SW8       29.97R



USA.gov is the U.S. government's official web portal to all federal, state and local government web resources and services.